When you browse on this site, cookies collect data to enhance your experience and personalize the content and advertising you see.
Visit our Privacy Policy to learn more. By continuing to use the site, you agree to this use of cookies and data.
  • In Hungary
  • List of Countries
  • For 7 days
  • Water Temperature
  • Satellite Maps
  • Weather Map
  • News
  • Weather Widgets
  • user-avatar
    Login

    Hourly Weather Broceni

    Today, 27 June, Thursday

    Time Temperature Precipitation Wind Pressure Humidity
    00:00 +18°C° 0.2 mm 1 mps 747 mmHg 94%
    01:00 +18°C° 0.2 mm 1 mps 747 mmHg 95%
    02:00 +16°C° 0 mm 1 mps 747 mmHg 95%
    03:00 +16°C° 0.1 mm 2 mps 746 mmHg 96%
    04:00 +17°C° 0.1 mm 2 mps 746 mmHg 96%
    05:00 +17°C° 0.1 mm 3 mps 746 mmHg 97%
    06:00 +17°C° 0.1 mm 4 mps 746 mmHg 95%
    07:00 +17°C° 0.1 mm 4 mps 747 mmHg 93%
    08:00 +16°C° 0.1 mm 5 mps 747 mmHg 91%
    09:00 +16°C° 0.1 mm 5 mps 748 mmHg 84%
    10:00 +17°C° 0.1 mm 5 mps 748 mmHg 78%
    11:00 +17°C° 0.1 mm 6 mps 748 mmHg 71%
    12:00 +19°C° 0.2 mm 6 mps 749 mmHg 65%
    13:00 +20°C° 0.2 mm 6 mps 749 mmHg 59%
    14:00 +20°C° 0.2 mm 7 mps 749 mmHg 53%
    15:00 +20°C° 0 mm 7 mps 749 mmHg 53%
    16:00 +18°C° 0 mm 7 mps 750 mmHg 53%
    17:00 +18°C° 0 mm 7 mps 750 mmHg 53%
    18:00 +16°C° 0 mm 6 mps 750 mmHg 58%
    19:00 +15°C° 0 mm 6 mps 750 mmHg 62%
    20:00 +14°C° 0 mm 5 mps 750 mmHg 67%
    21:00 +13°C° 0 mm 5 mps 750 mmHg 67%
    22:00 +13°C° 0 mm 5 mps 750 mmHg 68%
    23:00 +12°C° 0 mm 5 mps 750 mmHg 69%

    Tomorrow, 28 June, Friday

    Time Temperature Precipitation Wind Pressure Humidity
    00:00 +12°C° 0 mm 5 mps 751 mmHg 68%
    01:00 +12°C° 0 mm 5 mps 751 mmHg 67%
    02:00 +12°C° 0 mm 5 mps 751 mmHg 67%
    03:00 +12°C° 0 mm 4 mps 751 mmHg 68%
    04:00 +12°C° 0 mm 4 mps 751 mmHg 70%
    05:00 +12°C° 0 mm 4 mps 751 mmHg 71%
    06:00 +13°C° 0 mm 5 mps 751 mmHg 65%
    07:00 +15°C° 0 mm 5 mps 751 mmHg 59%
    08:00 +16°C° 0 mm 6 mps 752 mmHg 54%
    09:00 +17°C° 0 mm 6 mps 752 mmHg 50%
    10:00 +19°C° 0 mm 6 mps 752 mmHg 47%
    11:00 +20°C° 0 mm 6 mps 752 mmHg 44%
    12:00 +20°C° 0 mm 6 mps 752 mmHg 44%
    13:00 +20°C° 0 mm 6 mps 753 mmHg 44%
    14:00 +20°C° 0 mm 6 mps 753 mmHg 44%
    15:00 +20°C° 0 mm 6 mps 753 mmHg 46%
    16:00 +19°C° 0 mm 6 mps 753 mmHg 47%
    17:00 +19°C° 0 mm 6 mps 753 mmHg 49%
    18:00 +16°C° 0 mm 5 mps 753 mmHg 55%
    19:00 +15°C° 0 mm 5 mps 753 mmHg 61%
    20:00 +13°C° 0 mm 4 mps 753 mmHg 67%
    21:00 +12°C° 0 mm 3 mps 753 mmHg 70%
    22:00 +10°C° 0 mm 3 mps 753 mmHg 74%
    23:00 +9°C° 0 mm 2 mps 753 mmHg 77%

    Day after tomorrow, 29 June, Saturday

    Time Temperature Precipitation Wind Pressure Humidity
    00:00 +9°C° 0 mm 3 mps 753 mmHg 78%
    01:00 +10°C° 0 mm 3 mps 753 mmHg 79%
    02:00 +10°C° 0 mm 3 mps 753 mmHg 79%
    03:00 +10°C° 0 mm 3 mps 753 mmHg 79%
    04:00 +11°C° 0 mm 3 mps 753 mmHg 79%
    05:00 +13°C° 0 mm 2 mps 753 mmHg 79%
    06:00 +13°C° 0 mm 2 mps 752 mmHg 79%
    07:00 +14°C° 0 mm 2 mps 752 mmHg 79%
    08:00 +15°C° 0 mm 2 mps 752 mmHg 79%
    09:00 +16°C° 0 mm 2 mps 752 mmHg 75%
    10:00 +17°C° 0 mm 3 mps 752 mmHg 71%
    11:00 +19°C° 0 mm 3 mps 752 mmHg 67%
    12:00 +19°C° 0 mm 3 mps 751 mmHg 66%
    13:00 +20°C° 0 mm 3 mps 751 mmHg 65%
    14:00 +20°C° 0 mm 3 mps 751 mmHg 64%
    15:00 +21°C° 0 mm 3 mps 751 mmHg 60%
    16:00 +22°C° 0 mm 4 mps 751 mmHg 56%
    17:00 +23°C° 0 mm 4 mps 751 mmHg 53%
    18:00 +21°C° 0 mm 3 mps 751 mmHg 60%
    19:00 +20°C° 0 mm 2 mps 751 mmHg 68%
    20:00 +19°C° 0 mm 2 mps 751 mmHg 76%
    21:00 +17°C° 0 mm 2 mps 751 mmHg 82%
    22:00 +16°C° 0 mm 2 mps 751 mmHg 88%
    23:00 +14°C° 0 mm 1 mps 751 mmHg 94%

    30 June, Sunday

    Time Temperature Precipitation Wind Pressure Humidity
    00:00 +14°C° 0 mm 2 mps 751 mmHg 95%
    01:00 +14°C° 0 mm 2 mps 751 mmHg 96%
    02:00 +14°C° 0 mm 2 mps 750 mmHg 96%
    03:00 +14°C° 0 mm 2 mps 750 mmHg 96%
    04:00 +14°C° 0 mm 2 mps 750 mmHg 95%
    05:00 +15°C° 0 mm 2 mps 749 mmHg 95%
    06:00 +17°C° 0 mm 3 mps 749 mmHg 89%
    07:00 +19°C° 0 mm 4 mps 749 mmHg 84%
    08:00 +21°C° 0 mm 4 mps 749 mmHg 79%
    09:00 +22°C° 0 mm 5 mps 749 mmHg 71%
    10:00 +25°C° 0 mm 5 mps 749 mmHg 64%
    11:00 +26°C° 0 mm 5 mps 749 mmHg 56%
    12:00 +27°C° 0 mm 5 mps 748 mmHg 53%
    13:00 +27°C° 0 mm 6 mps 748 mmHg 50%
    14:00 +27°C° 0 mm 6 mps 748 mmHg 47%
    15:00 +27°C° 0 mm 6 mps 747 mmHg 50%
    16:00 +27°C° 0 mm 5 mps 747 mmHg 54%
    17:00 +26°C° 0 mm 5 mps 747 mmHg 57%
    18:00 +25°C° 0 mm 5 mps 747 mmHg 62%
    19:00 +23°C° 0 mm 4 mps 746 mmHg 66%
    20:00 +21°C° 0 mm 4 mps 746 mmHg 71%
    21:00 +21°C° 0 mm 4 mps 745 mmHg 73%
    22:00 +21°C° 0 mm 4 mps 745 mmHg 75%
    23:00 +20°C° 0 mm 4 mps 744 mmHg 77%

    1 July, Monday

    Time Temperature Precipitation Wind Pressure Humidity
    00:00 +20°C° 0 mm 4 mps 744 mmHg 77%
    01:00 +20°C° 0 mm 5 mps 743 mmHg 78%
    02:00 +20°C° 0 mm 5 mps 743 mmHg 78%
    03:00 +20°C° 0 mm 5 mps 743 mmHg 82%
    04:00 +19°C° 0 mm 5 mps 743 mmHg 86%
    05:00 +19°C° 0 mm 5 mps 743 mmHg 90%
    06:00 +19°C° 0 mm 5 mps 743 mmHg 82%
    07:00 +20°C° 0 mm 5 mps 743 mmHg 74%
    08:00 +20°C° 0 mm 6 mps 744 mmHg 66%
    09:00 +20°C° 0 mm 6 mps 744 mmHg 65%
    10:00 +21°C° 0 mm 6 mps 744 mmHg 63%
    11:00 +21°C° 0 mm 7 mps 745 mmHg 61%
    12:00 +20°C° 0 mm 6 mps 745 mmHg 64%
    13:00 +19°C° 0 mm 6 mps 745 mmHg 67%
    14:00 +17°C° 0 mm 6 mps 745 mmHg 70%
    15:00 +19°C° 0.2 mm 6 mps 745 mmHg 71%
    16:00 +19°C° 0.2 mm 6 mps 745 mmHg 71%
    17:00 +19°C° 0.2 mm 6 mps 745 mmHg 72%
    18:00 +17°C° 0.1 mm 5 mps 745 mmHg 74%
    19:00 +17°C° 0.1 mm 5 mps 745 mmHg 77%
    20:00 +17°C° 0.1 mm 4 mps 744 mmHg 79%
    21:00 +17°C° 0 mm 4 mps 744 mmHg 82%
    22:00 +15°C° 0 mm 4 mps 744 mmHg 84%
    23:00 +14°C° 0 mm 4 mps 744 mmHg 86%

    2 July, Tuesday

    Time Temperature Precipitation Wind Pressure Humidity
    00:00 +14°C° 0 mm 4 mps 744 mmHg 87%
    01:00 +14°C° 0 mm 4 mps 744 mmHg 87%
    02:00 +13°C° 0 mm 4 mps 744 mmHg 88%
    03:00 +13°C° 0 mm 4 mps 744 mmHg 89%
    04:00 +13°C° 0 mm 4 mps 744 mmHg 91%
    05:00 +13°C° 0 mm 3 mps 744 mmHg 93%
    06:00 +14°C° 0.1 mm 4 mps 744 mmHg 88%
    07:00 +15°C° 0.1 mm 5 mps 744 mmHg 84%
    08:00 +16°C° 0.1 mm 6 mps 744 mmHg 80%
    09:00 +17°C° 0.2 mm 6 mps 744 mmHg 74%
    10:00 +19°C° 0.2 mm 6 mps 744 mmHg 68%
    11:00 +20°C° 0.2 mm 6 mps 744 mmHg 62%
    12:00 +20°C° 0.1 mm 6 mps 744 mmHg 62%
    13:00 +20°C° 0.1 mm 7 mps 744 mmHg 62%
    14:00 +20°C° 0.1 mm 7 mps 744 mmHg 62%
    15:00 +18°C° 0.3 mm 7 mps 744 mmHg 65%
    16:00 +17°C° 0.3 mm 7 mps 744 mmHg 68%
    17:00 +17°C° 0.3 mm 6 mps 744 mmHg 70%
    18:00 +15°C° 0.1 mm 6 mps 744 mmHg 73%
    19:00 +14°C° 0.1 mm 5 mps 744 mmHg 75%
    20:00 +13°C° 0.1 mm 4 mps 744 mmHg 78%
    21:00 +12°C° 0.1 mm 4 mps 744 mmHg 82%
    22:00 +11°C° 0.1 mm 4 mps 744 mmHg 86%
    23:00 +10°C° 0.1 mm 3 mps 744 mmHg 91%
    Show more